Date String (YYYY-MM-DD hh:mm:ss) UTC,Instrument flags,absolute air pressure of the measurement (hPa),sample flow rate (lpm),inlet stack bypass flow (lpm),air temperature of the measurement (°C),ambient temperature measured by the external sensor (°C),aerosol sample conditioner tube jacket temperature (°C),OPC LED temperature (°C),internal box temperature (°C),relative humidity of the measurement (%),span deviation,mass concentration of particles derived from Lorenz-Mie calculation of OPC scattering (μg/m³),mass concentration of particles derived from Lorenz-Mie calculation of OPC scattering (μg/m³),mass concentration of particles derived from Lorenz-Mie calculation of OPC scattering (μg/m³)
DateTimeUTC,F1_M11,P_M11,Q1_M11,Q2_M11,T1_M11,T2_M11,T3_M11,T4_M11,T5_M11,U1_M11,ZSPAN_M11,X0_M11,X2_M11,X1_M11
2023-10-07 13:00:00,SystemResetWarning,0837.8,5.00,000.00,024.6,023.1,000.0,033.0,026.3,20.5,0000.5,0011.24,0007.01,0006.36
2023-10-07 13:01:00,SystemResetWarning,0837.8,5.00,000.00,024.6,023.1,000.0,033.0,026.3,20.5,0001.4,0011.28,0006.98,0006.36
2023-10-07 13:02:00,SystemResetWarning,0837.7,4.99,000.00,024.6,023.1,000.0,033.0,026.3,20.6,0001.2,0010.88,0006.93,0006.35
2023-10-07 13:03:00,SystemResetWarning,0837.8,5.00,000.00,024.6,023.1,000.0,033.0,026.3,20.6,0001.6,0011.00,0006.89,0006.34
2023-10-07 13:04:00,SystemResetWarning,0837.8,5.00,000.00,024.6,023.1,000.0,033.0,026.3,20.6,0002.3,0010.89,0006.85,0006.32
2023-10-07 13:05:00,SystemResetWarning,0837.8,5.00,000.00,024.6,023.1,000.0,033.0,026.3,20.6,0001.0,0010.91,0006.84,0006.29
2023-10-07 13:06:00,SystemResetWarning,0837.8,5.01,000.00,024.6,023.1,000.0,033.0,026.2,20.6,0000.0,0011.14,0006.81,0006.26
2023-10-07 13:07:00,SystemResetWarning,0837.8,5.01,000.00,024.5,023.1,000.0,033.0,026.2,20.6,0000.0,0011.46,0006.74,0006.21
2023-10-07 13:08:00,SystemResetWarning,0837.8,5.00,000.00,024.5,023.1,000.0,033.0,026.2,20.6,0001.2,0011.57,0006.68,0006.15
2023-10-07 13:09:00,SystemResetWarning,0837.8,4.98,000.00,024.5,023.1,000.0,033.0,026.2,20.6,0001.8,0011.46,0006.62,0006.10
2023-10-07 13:10:00,SystemResetWarning,0837.8,5.00,000.00,024.5,023.1,000.0,033.0,026.2,20.5,0002.3,0011.25,0006.53,0006.06
2023-10-07 13:11:00,SystemResetWarning,0837.8,5.00,000.00,024.5,023.1,000.0,033.0,026.2,20.5,0001.0,0011.17,0006.46,0005.99
2023-10-07 13:12:00,SystemResetWarning,0837.8,5.01,000.00,024.5,023.1,000.0,033.0,026.2,20.4,0000.0,0010.63,0006.39,0005.93
2023-10-07 13:13:00,SystemResetWarning,0837.8,5.01,000.00,024.5,023.1,000.0,032.9,026.2,20.5,0000.0,0010.61,0006.36,0005.89
2023-10-07 13:14:00,SystemResetWarning,0837.8,4.99,000.00,024.5,023.1,000.0,032.9,026.2,20.4,0000.0,0010.66,0006.32,0005.85
2023-10-07 13:15:00,SystemResetWarning,0837.8,4.98,000.00,024.5,023.0,000.0,032.9,026.1,20.4,0000.0,0010.62,0006.28,0005.82
2023-10-07 13:16:00,SystemResetWarning,0837.8,5.01,000.00,024.5,023.0,000.0,032.9,026.2,20.4,0000.0,0010.58,0006.25,0005.80
2023-10-07 13:17:00,SystemResetWarning,0837.8,5.01,000.00,024.5,023.0,000.0,032.9,026.2,20.4,0000.0,0010.39,0006.22,0005.76
2023-10-07 13:18:00,SystemResetWarning,0837.8,5.00,000.00,024.5,023.0,000.0,032.9,026.2,20.4,0000.0,0010.10,0006.21,0005.76
2023-10-07 13:19:00,SystemResetWarning,0837.8,4.99,000.00,024.5,023.1,000.0,032.9,026.2,20.4,0000.0,0010.36,0006.22,0005.76
2023-10-07 13:20:00,SystemResetWarning,0837.8,5.00,000.00,024.5,023.1,000.0,032.9,026.2,20.5,0000.0,0010.31,0006.18,0005.74
2023-10-07 13:21:00,SystemResetWarning,0837.8,5.00,000.00,024.5,023.1,000.0,032.9,026.2,20.5,0000.0,0010.34,0006.19,0005.73
2023-10-07 13:22:00,SystemResetWarning,0837.8,5.00,000.00,024.5,023.1,000.0,032.9,026.2,20.5,0000.9,0010.42,0006.21,0005.73
2023-10-07 13:23:00,SystemResetWarning,0837.8,5.00,000.00,024.5,023.1,000.0,032.9,026.2,20.5,0001.8,0010.44,0006.22,0005.72
2023-10-07 13:24:00,SystemResetWarning,0837.8,5.01,000.00,024.5,023.1,000.0,032.9,026.3,20.5,0001.3,0010.31,0006.20,0005.70
2023-10-07 13:25:00,SystemResetWarning,0837.8,5.00,000.00,024.5,023.1,000.0,032.9,026.3,20.5,0000.0,0010.10,0006.18,0005.68
2023-10-07 13:26:00,SystemResetWarning,0837.8,5.00,000.00,024.5,023.1,000.0,032.9,026.3,20.5,0000.0,0010.17,0006.17,0005.65
2023-10-07 13:27:00,SystemResetWarning,0837.8,5.00,000.00,024.5,023.2,000.0,032.9,026.3,20.5,0000.7,0010.34,0006.15,0005.61
2023-10-07 13:28:00,SystemResetWarning,0837.8,5.00,000.00,024.6,023.2,000.0,032.9,026.3,20.5,0000.0,0011.34,0006.14,0005.60
2023-10-07 13:29:00,SystemResetWarning,0837.8,5.00,000.00,024.6,023.2,000.0,032.9,026.3,20.5,0000.0,0011.34,0006.11,0005.57
2023-10-07 13:30:00,SystemResetWarning,0837.8,4.99,000.00,024.6,023.2,000.0,032.9,026.4,20.5,0000.0,0010.66,0006.06,0005.55
2023-10-07 13:31:00,SystemResetWarning,0837.8,5.00,000.00,024.6,023.2,000.0,033.0,026.4,20.5,0000.0,0010.87,0006.08,0005.53
2023-10-07 13:32:00,SystemResetWarning,0837.8,5.00,000.00,024.6,023.2,000.0,033.0,026.4,20.4,0000.0,0011.25,0006.09,0005.52
2023-10-07 13:33:00,SystemResetWarning,0837.8,5.00,000.00,024.6,023.3,000.0,033.0,026.4,20.4,0000.0,0011.43,0006.09,0005.52
2023-10-07 13:34:00,SystemResetWarning,0837.8,5.00,000.00,024.6,023.3,000.0,033.0,026.4,20.4,0000.0,0011.57,0006.10,0005.52
2023-10-07 13:35:00,SystemResetWarning,0837.8,5.00,000.00,024.6,023.3,000.0,033.0,026.4,20.4,0000.0,0011.66,0006.10,0005.52
2023-10-07 13:36:00,SystemResetWarning,0837.8,5.00,000.00,024.6,023.3,000.0,033.0,026.4,20.4,0000.0,0012.18,0006.11,0005.53
2023-10-07 13:37:00,SystemResetWarning,0837.8,5.00,000.00,024.7,023.3,000.0,033.0,026.5,20.4,0000.0,0012.32,0006.09,0005.55
2023-10-07 13:38:00,SystemResetWarning,0837.8,5.00,000.00,024.7,023.3,000.0,033.0,026.5,20.6,0000.0,0012.73,0006.11,0005.57
2023-10-07 13:39:00,SystemResetWarning,0837.9,5.00,000.00,024.7,023.4,000.0,033.0,026.5,20.6,0000.5,0012.11,0006.13,0005.60
2023-10-07 13:40:00,SystemResetWarning,0837.9,5.00,000.00,024.7,023.4,000.0,033.0,026.5,20.6,0000.1,0012.06,0006.17,0005.62
2023-10-07 13:41:00,SystemResetWarning,0838.0,5.00,000.00,024.7,023.4,000.0,033.0,026.5,20.7,0001.7,0012.20,0006.23,0005.66
2023-10-07 13:42:00,SystemResetWarning,0838.0,5.00,000.00,024.7,023.4,000.0,033.0,026.5,20.7,0000.8,0012.11,0006.29,0005.68
2023-10-07 13:43:00,SystemResetWarning,0838.0,5.00,000.00,024.7,023.4,000.0,033.1,026.5,20.6,0000.6,0011.79,0006.28,0005.69
2023-10-07 13:44:00,SystemResetWarning,0838.0,5.00,000.00,024.7,023.4,000.0,033.1,026.5,20.5,0000.5,0011.45,0006.26,0005.71
2023-10-07 13:45:00,SystemResetWarning,0838.0,5.00,000.00,024.8,023.4,000.0,033.1,026.5,20.5,0000.4,0011.15,0006.24,0005.73
2023-10-07 13:46:00,SystemResetWarning,0838.0,5.00,000.00,024.8,023.4,000.0,033.1,026.6,20.4,-000.1,0011.19,0006.20,0005.71
2023-10-07 13:47:00,SystemResetWarning,0837.9,5.00,000.00,024.8,023.4,000.0,033.1,026.5,20.3,-000.0,0010.89,0006.14,0005.68
2023-10-07 13:48:00,SystemResetWarning,0838.0,5.00,000.00,024.8,023.4,000.0,033.1,026.5,20.2,0000.0,0010.86,0006.11,0005.63
2023-10-07 13:49:00,SystemResetWarning,0838.0,5.00,000.00,024.8,023.5,000.0,033.2,026.5,20.2,0000.2,0010.29,0006.05,0005.58
2023-10-07 13:50:00,SystemResetWarning,0838.0,4.99,000.00,024.8,023.5,000.0,033.2,026.6,20.4,0000.0,0009.79,0005.98,0005.52
2023-10-07 13:51:00,SystemResetWarning,0838.0,5.00,000.00,024.8,023.5,000.0,033.2,026.6,20.7,0000.0,0009.71,0005.89,0005.45
2023-10-07 13:52:00,SystemResetWarning,0838.0,5.02,000.00,024.8,023.5,000.0,033.2,026.6,20.8,0000.0,0009.53,0005.78,0005.36
2023-10-07 13:53:00,SystemResetWarning,0838.0,4.99,000.00,024.8,023.5,000.0,033.2,026.6,21.1,0000.0,0009.33,0005.66,0005.29
2023-10-07 13:54:00,SystemResetWarning,0837.9,4.98,000.00,024.8,023.5,000.0,033.2,026.6,21.0,0000.0,0009.36,0005.60,0005.23
2023-10-07 13:55:00,SystemResetWarning,0837.9,5.01,000.00,024.9,023.5,000.0,033.2,026.6,21.0,0000.0,0009.34,0005.54,0005.16
2023-10-07 13:56:00,SystemResetWarning,0837.9,5.00,000.00,024.9,023.5,000.0,033.2,026.6,21.2,0000.0,0009.71,0005.49,0005.11
2023-10-07 13:57:00,SystemResetWarning,0837.9,5.01,000.00,024.9,023.5,000.0,033.2,026.6,21.4,0000.0,0009.68,0005.48,0005.08
2023-10-07 13:58:00,SystemResetWarning,0838.0,5.00,000.00,024.9,023.5,000.0,033.2,026.6,21.4,0000.0,0009.78,0005.50,0005.08
2023-10-07 13:59:00,SystemResetWarning,0838.0,5.00,000.00,024.9,023.6,000.0,033.2,026.6,21.6,0000.0,0009.57,0005.49,0005.08
